Content
SEND FEEDBACK

Daily
Averages
Monthly
Summary
United States of America

UMATAC, GUAM


Home > North America > United States > Guam
Elevation: 190 feet     Latitude: 13 17N     Longitude: 144 40E

WEATHER
 
SELECT A DAY
Number of Records: 342,554;   Date Range: 1/1/95 - 9/16/14
 
SHARE

PRINT THIS DATA

[ ← Previous Day ]
WEATHER ALMANAC - SEPTEMBER 28, 2013
[ Next Day → ]
[ °C ]   °F
Weather ElementAverageHighLow
Temperature78.3 °F86.4 °F (12:58 pm)68 °F (3:33 am)
Dewpoint74.9 °F77.7 °F (10:58 am)66.2 °F (3:33 am)
Humidity89.7 %100 % (2:28 am)70 % (2:58 pm)
Barometer29.70 in29.77 in (12:46 am)29.57 in (2:58 pm)
Wind Speed6.6 mph16.1 mph (3:18 am)
Wind Gust18.4 mph (2:58 am)
Weather ElementAverage
Visibility8.2 mi
Wind DirectionSSW (202.5 °)

Weather ElementTotal
Precipitation0.83 in
Cooling Degree Days12.2 (Base 65)
Growing Degree Days27.2 (Base 50)
Averaged from 60 records on September 28, 2013
WEATHER CONDITIONS BREAKOUT
WIND DIRECTION BREAKOUT
WEATHER BY HOUR - SEPTEMBER 28, 2013
[ °C ]   °F
Local TimeTemperatureDewpointHumidityBarometerVisibilityWind DirectionWind SpeedGust SpeedPrecipitationEventsConditions
12:46 AM78.8 °F77.0 °F94 %29.77 in10.0 miWSW (250°)5.8 mphPartly Cloudy
12:58 AM77.7 °F77.0 °F98 %29.65 in10.0 miWest (280°)4.6 mph0.00 inPartly Cloudy
1:23 AM78.8 °F77.0 °F94 %29.77 in10.0 miCalmMostly Cloudy
1:38 AM78.8 °F77.0 °F94 %29.77 in10.0 miWSW (250°)5.8 mphMostly Cloudy
1:43 AM78.8 °F77.0 °F94 %29.77 in10.0 miWSW (240°)5.8 mphMostly Cloudy
1:48 AM78.8 °F77.0 °F94 %29.77 in10.0 miWSW (240°)6.9 mphMostly Cloudy
1:58 AM78.8 °F77.0 °F94 %29.64 in10.0 miWSW (240°)10.4 mphMostly Cloudy
2:03 AM78.8 °F77.0 °F94 %29.75 in10.0 miWSW (240°)10.4 mphMostly Cloudy
2:28 AM77.0 °F77.0 °F100 %29.75 in10.0 miWest (260°)8.1 mphMostly Cloudy
2:33 AM77.0 °F77.0 °F100 %29.75 in10.0 miWest (270°)5.8 mphMostly Cloudy
2:43 AM77.0 °F77.0 °F100 %29.75 in8.0 miNW (310°)5.8 mphThunderstormMostly Cloudy
2:44 AM77.0 °F77.0 °F100 %29.75 in7.0 miNW (310°)5.8 mphThunderstormThunderstorm
2:46 AM77.0 °F77.0 °F100 %29.75 in5.0 miNW (320°)5.8 mphRain-ThunderstormLight Thunderstorms and Rain
2:56 AM73.4 °F71.6 °F94 %29.76 in3.0 miNNW (340°)12.7 mphRain-ThunderstormHeavy Thunderstorms and Rain
2:58 AM74.7 °F73.8 °F97 %29.64 in4.0 miNorth (350°)13.8 mph18.4 mph0.08 inRain-ThunderstormHeavy Thunderstorms and Rain
3:03 AM69.8 °F68.0 °F94 %29.76 in4.0 miNorth (350°)11.5 mph18.4 mphRain-ThunderstormHeavy Thunderstorms and Rain
3:18 AM69.8 °F68.0 °F94 %29.76 in4.0 miNorth (350°)16.1 mphRain-ThunderstormHeavy Thunderstorms and Rain
3:23 AM71.6 °F69.8 °F94 %29.76 in3.0 miNorth (350°)10.4 mphRain-ThunderstormHeavy Thunderstorms and Rain
3:28 AM69.8 °F68.0 °F94 %29.77 in2.5 miNorth (360°)6.9 mphRain-ThunderstormHeavy Thunderstorms and Rain
3:33 AM68.0 °F66.2 °F94 %29.77 in3.0 miNNW (330°)6.9 mphRain-ThunderstormHeavy Thunderstorms and Rain
3:46 AM75.2 °F73.4 °F94 %29.77 in10.0 miNW (310°)4.6 mphRainRain
3:51 AM75.2 °F73.4 °F94 %29.77 in10.0 miNW (310°)4.6 mphRainRain
3:56 AM75.2 °F73.4 °F94 %29.76 in10.0 miWest (280°)1.2 mphRainLight Rain
3:58 AM75.2 °F73.4 °F94 %29.65 in10.0 miCalm0.72 inRainLight Rain
4:03 AM75.2 °F73.4 °F94 %29.76 in10.0 miCalmRainLight Rain
4:08 AM75.2 °F73.4 °F94 %29.76 in10.0 miWSW (250°)1.2 mphRainLight Rain
4:22 AM75.2 °F73.4 °F94 %29.76 in10.0 miNNW (330°)1.2 mphPartly Cloudy
4:23 AM75.2 °F73.4 °F94 %29.76 in10.0 miVariable2.3 mphLight Drizzle
4:58 AM75.2 °F73.4 °F94 %29.66 in10.0 miWSW (250°)4.6 mph0.01 inRainLight Rain
5:58 AM75.4 °F75.0 °F99 %29.65 in10.0 miWest (260°)6.9 mph0.02 inLight Drizzle
6:13 AM75.2 °F75.2 °F100 %29.76 in10.0 miWest (270°)6.9 mphPartly Cloudy
6:58 AM75.0 °F74.7 °F99 %29.64 in10.0 miWSW (250°)8.1 mph0.00 inMostly Cloudy
7:58 AM77.2 °F76.3 °F97 %29.64 in10.0 miWest (260°)5.8 mphPartly Cloudy
8:58 AM79.2 °F76.1 °F90 %29.68 in10.0 miNE (50°)2.3 mphPartly Cloudy
9:58 AM78.8 °F72.9 °F82 %29.67 in10.0 miVariable2.3 mphPartly Cloudy
10:58 AM84.0 °F77.7 °F81 %29.64 in10.0 miESE (110°)8.1 mphScattered Clouds
11:03 AM82.4 °F75.2 °F79 %29.76 in10.0 miESE (120°)6.9 mphScattered Clouds
11:58 AM84.4 °F77.7 °F80 %29.60 in9.0 miEast (100°)8.1 mphMostly Cloudy
12:03 PM84.2 °F77.0 °F79 %29.73 in8.0 miESE (120°)8.1 mphMostly Cloudy
12:58 PM86.4 °F77.0 °F74 %29.59 in8.0 miSouth (190°)8.1 mphMostly Cloudy
1:38 PM84.2 °F77.0 °F79 %29.70 in8.0 miSouth (190°)10.4 mphMostly Cloudy
1:58 PM83.1 °F76.6 °F81 %29.58 in10.0 miWest (280°)10.4 mphOvercast
2:08 PM82.4 °F77.0 °F84 %29.70 in10.0 miWSW (250°)6.9 mphMostly Cloudy
2:18 PM82.4 °F77.0 °F84 %29.70 in9.0 miSouth (190°)4.6 mphMostly Cloudy
2:23 PM82.4 °F75.2 °F79 %29.70 in8.0 miSSE (150°)11.5 mphMostly Cloudy
2:28 PM82.4 °F75.2 °F79 %29.69 in7.0 miSSE (160°)9.2 mphMostly Cloudy
2:33 PM82.4 °F75.2 °F79 %29.70 in7.0 miSouth (170°)9.2 mphMostly Cloudy
2:58 PM85.1 °F74.1 °F70 %29.57 in7.0 miSouth (170°)8.1 mphClear
3:58 PM84.4 °F75.9 °F76 %29.57 in7.0 miSouth (170°)10.4 mphScattered Clouds
4:18 PM84.2 °F77.0 °F79 %29.69 in9.0 miSouth (170°)12.7 mphMostly Cloudy
4:28 PM82.4 °F77.0 °F84 %29.70 in9.0 miSouth (170°)12.7 mphMostly Cloudy
4:33 PM82.4 °F77.0 °F84 %29.70 in9.0 miSouth (180°)12.7 mphMostly Cloudy
4:58 PM81.7 °F75.7 °F82 %29.58 in9.0 miSouth (190°)11.5 mphPartly Cloudy
5:58 PM80.4 °F76.5 °F88 %29.60 in4.0 miSouth (170°)6.9 mphScattered Clouds
6:58 PM76.6 °F73.4 °F90 %29.61 in7.0 miSSE (150°)4.6 mphScattered Clouds
7:58 PM79.7 °F74.8 °F85 %29.62 in7.0 miSE (130°)3.5 mphPartly Cloudy
8:58 PM79.9 °F75.4 °F86 %29.64 in7.0 miCalmClear
9:58 PM78.6 °F75.9 °F91 %29.64 in6.0 miCalmClear
10:58 PM75.6 °F71.8 °F88 %29.62 in7.0 miSSE (160°)2.3 mphMostly Cloudy
11:58 PM77.9 °F75.7 °F93 %29.60 in8.0 miCalmScattered Clouds
Hourly data recorded from PGUA, located miles away from Umatac, Guam







STORIES FROM OUR PARTNERS